TimePST,TemperatureF,Dew PointF,Humidity,Sea Level PressureIn,VisibilityMPH,Wind Direction,Wind SpeedMPH,Gust SpeedMPH,PrecipitationIn,Events,Conditions,WindDirDegrees,DateUTC
12:52 AM,53.1,1.9,12,30.28,10.0,NW,9.2,-,N/A,,Clear,310,2013-02-28 08:52:00
1:52 AM,57.0,3.9,12,30.28,10.0,NNW,12.7,16.1,N/A,,Clear,340,2013-02-28 09:52:00
2:52 AM,55.0,5.0,13,30.27,10.0,NNW,13.8,-,N/A,,Clear,340,2013-02-28 10:52:00
3:52 AM,52.0,6.1,16,30.28,10.0,NNE,12.7,-,N/A,,Clear,20,2013-02-28 11:52:00
4:52 AM,48.0,8.1,20,30.30,10.0,NNE,10.4,-,N/A,,Clear,30,2013-02-28 12:52:00
5:52 AM,45.0,9.0,23,30.32,10.0,ENE,6.9,-,N/A,,Clear,70,2013-02-28 13:52:00
6:52 AM,46.9,10.9,23,30.33,10.0,East,4.6,-,N/A,,Clear,80,2013-02-28 14:52:00
7:52 AM,52.0,14.0,22,30.36,10.0,East,6.9,-,N/A,,Clear,80,2013-02-28 15:52:00
8:52 AM,59.0,12.9,16,30.36,10.0,Calm,Calm,-,N/A,,Clear,0,2013-02-28 16:52:00
9:52 AM,64.9,10.0,12,30.36,10.0,North,11.5,-,N/A,,Clear,360,2013-02-28 17:52:00
10:52 AM,68.0,9.0,10,30.35,10.0,North,11.5,-,N/A,,Clear,350,2013-02-28 18:52:00
11:52 AM,69.1,16.0,13,30.33,10.0,ESE,6.9,-,N/A,,Clear,120,2013-02-28 19:52:00
1:52 PM,73.0,9.0,8,30.28,10.0,NE,4.6,-,N/A,,Clear,50,2013-02-28 21:52:00
2:52 PM,75.9,10.0,8,30.27,10.0,North,12.7,19.6,N/A,,Clear,10,2013-02-28 22:52:00
3:52 PM,75.0,10.0,8,30.25,10.0,Calm,Calm,-,N/A,,Clear,0,2013-02-28 23:52:00
4:52 PM,72.0,19.9,14,30.24,10.0,SSE,6.9,-,N/A,,Clear,160,2013-03-01 00:52:00
5:52 PM,66.9,19.9,17,30.25,10.0,South,3.5,-,N/A,,Clear,190,2013-03-01 01:52:00
6:52 PM,63.0,19.9,19,30.27,10.0,WSW,4.6,-,N/A,,Clear,240,2013-03-01 02:52:00
7:52 PM,63.0,18.0,18,30.27,10.0,WSW,3.5,-,N/A,,Clear,250,2013-03-01 03:52:00
8:52 PM,59.0,15.1,18,30.29,10.0,NW,6.9,-,N/A,,Clear,320,2013-03-01 04:52:00
9:52 PM,57.9,15.1,19,30.30,10.0,NNW,3.5,-,N/A,,Clear,340,2013-03-01 05:52:00
10:52 PM,60.1,14.0,16,30.31,10.0,West,3.5,-,N/A,,Clear,270,2013-03-01 06:52:00
11:52 PM,57.0,14.0,18,30.30,10.0,North,8.1,-,N/A,,Clear,350,2013-03-01 07:52:00